Tracking 18844 objects as of 21-Nov-2017
HD Live streaming from Space Station
objects crossing your sky now

FENGYUN 1C DEB

Track FENGYUN 1C DEB now!
10-day predictions


NORAD ID: 30053
Int'l Code: 1999-025PE
Perigee: 695.7 km
Apogee: 1,263.9 km
Inclination: 98.6 °
Period: 104.5 minutes
Semi major axis: 7350 km
RCS: 0.0436 m2 (small)
Launch date: May 10, 1999
Source: People's Republic of China (PRC)
Launch site: Taiyaun Space Center, China (TSC)

Note: This is SATELLITE DEBRIS
aabbcc
Your satellite tracking list
Your tracking list is empty




NASA's NSSDC Master Catalog

Two Line Element Set (TLE):
1 30053U 99025PE  17324.96516803 +.00000625 +00000-0 +38174-3 0  9990
2 30053 098.5941 340.3154 0386528 059.8657 359.9764 13.77531156543308
Source of the keplerian elements: AFSPC